H1 CPF 2 NER 2024 8 4 9 217 01 glonass135 H2 1600801 9135 41330 2024 8 4 0 0 0 2024 8 7 23 45 0 900 1 1 0 0 0 1 H9 10 0 60526 0.00000 0 21550294.127 12282957.304 6065777.895 10 0 60526 900.00000 0 20745802.950 11771059.363 9116084.772 10 0 60526 1800.00000 0 19557960.906 11212507.882 11989860.874 10 0 60526 2700.00000 0 18002321.027 10665078.928 14631436.511 10 0 60526 3600.00000 0 16107364.968 10183477.682 16989614.709 10 0 60526 4500.00000 0 13913515.586 9816879.687 19018656.841 10 0 60526 5400.00000 0 11471664.000 9606716.361 20679165.193 10 0 60526 6300.00000 0 8841270.801 9584797.732 21938845.996 10 0 60526 7200.00000 0 6088118.604 9771851.519 22773138.438 10 0 60526 8100.00000 0 3281807.506 10176540.506 23165697.631 10 0 60526 9000.00000 0 493095.726 10795000.567 23108721.919 10 0 60526 9900.00000 0 -2208805.627 11610920.134 22603117.599 10 0 60526 10800.00000 0 -4758872.532 12596159.529 21658496.934 10 0 60526 11700.00000 0 -7098733.901 13711886.032 20293008.270 10 0 60526 12600.00000 0 -9178861.132 14910178.828 18533000.119 10 0 60526 13500.00000 0 -10960390.234 16136038.008 16412524.257 10 0 60526 14400.00000 0 -12416500.287 17329714.318 13972686.023 10 0 60526 15300.00000 0 -13533290.217 18429262.254 11260853.313 10 0 60526 16200.00000 0 -14310116.760 19373208.938 8329738.803 10 0 60526 17100.00000 0 -14759379.205 20103225.691 5236372.893 10 0 60526 18000.00000 0 -14905759.978 20566688.383 2040987.576 10 0 60526 18900.00000 0 -14784953.510 20719016.924 -1194166.364 10 0 60526 19800.00000 0 -14441937.891 20525693.311 -4406044.684 10 0 60526 20700.00000 0 -13928863.603 19963871.197 -7532052.181 10 0 60526 21600.00000 0 -13302650.206 19023507.427 -10511276.558 10 0 60526 22500.00000 0 -12622394.481 17707966.492 -13285688.044 10 0 60526 23400.00000 0 -11946701.477 16034071.601 -15801279.965 10 0 60526 24300.00000 0 -11331053.030 14031599.813 -18009127.002 10 0 60526 25200.00000 0 -10825326.357 11742242.456 -19866339.902 10 0 60526 26100.00000 0 -10471568.431 9218074.813 -21336897.877 10 0 60526 27000.00000 0 -10302120.486 6519599.653 -22392342.813 10 0 60526 27900.00000 0 -10338171.618 3713446.904 -23012322.495 10 0 60526 28800.00000 0 -10588801.852 869825.884 -23184973.286 10 0 60526 29700.00000 0 -11050554.066 -1940163.658 -22907136.048 10 0 60526 30600.00000 0 -11707551.654 -4647250.083 -22184402.339 10 0 60526 31500.00000 0 -12532155.839 -7186625.589 -21030991.197 10 0 60526 32400.00000 0 -13486133.956 -9500390.748 -19469459.955 10 0 60526 33300.00000 0 -14522288.741 -11539707.812 -17530255.507 10 0 60526 34200.00000 0 -15586479.575 -13266575.059 -15251115.299 10 0 60526 35100.00000 0 -16619950.510 -14655150.520 -12676330.056 10 0 60526 36000.00000 0 -17561867.322 -15692572.138 -9855882.576 10 0 60526 36900.00000 0 -18351957.176 -16379242.275 -6844479.294 10 0 60526 37800.00000 0 -18933140.493 -16728566.747 -3700493.109 10 0 60526 38700.00000 0 -19254044.877 -16766161.011 -484837.627 10 0 60526 39600.00000 0 -19271296.042 -16528558.213 2740205.775 10 0 60526 40500.00000 0 -18951489.953 -16061474.281 5912185.845 10 0 60526 41400.00000 0 -18272763.629 -15417703.462 8969681.717 10 0 60526 42300.00000 0 -17225898.678 -14654732.888 11853482.881 10 0 60526 43200.00000 0 -15814910.849 -13832176.200 14507726.777 10 0 60526 44100.00000 0 -14057100.196 -13009133.706 16880972.721 10 0 60526 45000.00000 0 -11982558.595 -12241589.412 18927192.107 10 0 60526 45900.00000 0 -9633153.669 -11579953.738 20606656.419 10 0 60526 46800.00000 0 -7061029.615 -11066854.649 21886706.451 10 0 60526 47700.00000 0 -4326685.408 -10735269.736 22742388.208 10 0 60526 48600.00000 0 -1496708.180 -10607077.782 23156943.288 10 0 60526 49500.00000 0 1358746.094 -10692091.121 23122144.049 10 0 60526 50400.00000 0 4168621.734 -10987610.280 22638466.473 10 0 60526 51300.00000 0 6863673.043 -11478520.890 21715096.483 10 0 60526 52200.00000 0 9379103.056 -12137930.231 20369768.348 10 0 60526 53100.00000 0 11657022.284 -12928318.262 18628436.916 10 0 60526 54000.00000 0 13648625.316 -13803156.157 16524788.505 10 0 60526 54900.00000 0 15315994.382 -14708925.451 14099598.538 10 0 60526 55800.00000 0 16633454.069 -15587453.443 11399947.196 10 0 60526 56700.00000 0 17588419.992 -16378466.562 8478307.511 10 0 60526 57600.00000 0 18181705.335 -17022253.534 5391523.237 10 0 60526 58500.00000 0 18427272.088 -17462324.859 2199696.584 10 0 60526 59400.00000 0 18351437.570 -17647954.735 -1034991.887 10 0 60526 60300.00000 0 17991570.176 -17536496.208 -4249507.125 10 0 60526 61200.00000 0 17394330.376 -17095369.734 -7381201.901 10 0 60526 62100.00000 0 16613532.610 -16303639.300 -10369051.762 10 0 60526 63000.00000 0 15707720.091 -15153107.899 -13154857.008 10 0 60526 63900.00000 0 14737556.759 -13648884.953 -15684386.796 10 0 60526 64800.00000 0 13763148.320 -11809400.948 -17908442.016 10 0 60526 65700.00000 0 12841406.891 -9665868.288 -19783815.607 10 0 60526 66600.00000 0 12023571.571 -7261211.052 -21274131.369 10 0 60526 67500.00000 0 11352989.982 -4648508.745 -22350545.282 10 0 60526 68400.00000 0 10863254.203 -1889019.503 -22992296.374 10 0 60526 69300.00000 0 10576769.044 950134.318 -23187097.429 10 0 60526 70200.00000 0 10503811.835 3798521.544 -22931359.140 10 0 60526 71100.00000 0 10642121.954 6585092.311 -22230244.640 10 0 60526 72000.00000 0 10977035.854 9240891.474 -21097554.504 10 0 60526 72900.00000 0 11482160.422 11701683.386 -19555445.576 10 0 60526 73800.00000 0 12120555.030 13910380.216 -17633989.838 10 0 60526 74700.00000 0 12846371.523 15819174.398 -15370582.533 10 0 60526 75600.00000 0 13606882.416 17391288.351 -12809211.333 10 0 60526 76500.00000 0 14344811.579 18602270.558 -9999600.847 10 0 60526 77400.00000 0 15000869.388 19440786.135 -6996249.045 10 0 60526 78300.00000 0 15516385.766 19908870.666 -3857374.020 10 0 60526 79200.00000 0 15835930.592 20021638.416 -643791.117 10 0 60526 80100.00000 0 15909811.784 19806458.724 2582258.150 10 0 60526 81000.00000 0 15696346.365 19301636.125 5758303.249 10 0 60526 81900.00000 0 15163809.305 18554650.222 8822845.251 10 0 60526 82800.00000 0 14291978.256 17620029.442 11716538.299 10 0 60526 83700.00000 0 13073209.074 16556947.808 14383329.751 10 0 60526 84600.00000 0 11512996.332 15426645.206 16771537.716 10 0 60526 85500.00000 0 9629994.299 14289778.789 18834845.797 10 0 60527 0.00000 0 7455496.194 13203816.045 20533196.392 10 0 60527 900.00000 0 5032390.401 12220577.574 21833566.686 10 0 60527 1800.00000 0 2413637.995 11384033.531 22710610.479 10 0 60527 2700.00000 0 -339671.161 10728443.875 23147156.614 10 0 60527 3600.00000 0 -3160602.349 10276921.860 23134551.778 10 0 60527 4500.00000 0 -5978908.239 10040480.818 22672841.482 10 0 60527 5400.00000 0 -8723705.887 10017605.054 21770784.627 10 0 60527 6300.00000 0 -11326188.669 10194363.873 20445700.197 10 0 60527 7200.00000 0 -13722261.265 10545065.148 18723147.622 10 0 60527 8100.00000 0 -15854988.467 11033422.163 16636445.524 10 0 60527 9000.00000 0 -17676755.687 11614185.677 14226036.745 10 0 60527 9900.00000 0 -19151050.494 12235173.167 11538710.764 10 0 60527 10800.00000 0 -20253790.030 12839609.915 8626697.777 10 0 60527 11700.00000 0 -20974137.964 13368682.830 5546651.601 10 0 60527 12600.00000 0 -21314776.047 13764198.214 2358541.373 10 0 60527 13500.00000 0 -21291618.584 13971229.737 -875525.785 10 0 60527 14400.00000 0 -20932981.908 13940642.842 -4092527.103 10 0 60527 15300.00000 0 -20278244.477 13631386.846 -7229766.255 10 0 60527 16200.00000 0 -19376055.132 13012455.749 -10226109.371 10 0 60527 17100.00000 0 -18282166.564 12064433.089 -13023189.324 10 0 60527 18000.00000 0 -17056987.092 10780554.019 -15566553.318 10 0 60527 18900.00000 0 -15762955.732 9167238.717 -17806730.351 10 0 60527 19800.00000 0 -14461852.797 7244073.947 -19700197.069 10 0 60527 20700.00000 0 -13212160.574 5043243.243 -21210222.989 10 0 60527 21600.00000 0 -12066585.888 2608429.648 -22307578.909 10 0 60527 22500.00000 0 -11069848.945 -6762.860 -22971095.424 10 0 60527 23400.00000 0 -10256830.928 -2740802.985 -23188061.669 10 0 60527 24300.00000 0 -9651157.183 -5526557.390 -22954457.733 10 0 60527 25200.00000 0 -9264274.047 -8293850.783 -22275017.513 10 0 60527 26100.00000 0 -9095056.365 -10972154.479 -21163121.983 10 0 60527 27000.00000 0 -9129960.331 -13493292.262 -19640526.023 10 0 60527 27900.00000 0 -9343713.452 -15794052.005 -17736924.959 10 0 60527 28800.00000 0 -9700511.067 -17818595.670 -15489369.831 10 0 60527 29700.00000 0 -10155667.818 -19520568.982 -12941543.087 10 0 60527 30600.00000 0 -10657653.749 -20864824.690 -10142908.877 10 0 60527 31500.00000 0 -11150428.809 -21828689.362 -7147754.381 10 0 60527 32400.00000 0 -11575977.247 -22402722.571 -4014140.520 10 0 60527 33300.00000 0 -11876935.355 -22590938.496 -802782.045 10 0 60527 34200.00000 0 -11999202.051 -22410481.941 2424121.697 10 0 60527 35100.00000 0 -11894422.734 -21890773.517 5604083.186 10 0 60527 36000.00000 0 -11522242.270 -21072160.590 8675527.724 10 0 60527 36900.00000 0 -10852232.321 -20004130.751 11578976.370 10 0 60527 37800.00000 0 -9865411.918 -18743162.745 14258188.637 10 0 60527 38700.00000 0 -8555296.917 -17350304.523 16661243.564 10 0 60527 39600.00000 0 -6928433.423 -15888579.325 18741538.969 10 0 60527 40500.00000 0 -5004391.489 -14420327.624 20458690.242 10 0 60527 41400.00000 0 -2815217.575 -13004595.395 21779311.904 10 0 60527 42300.00000 0 -404366.538 -11694677.237 22677667.171 10 0 60527 43200.00000 0 2174844.690 -10535916.550 23136173.093 10 0 60527 44100.00000 0 4861199.766 -9563854.436 23145751.345 10 0 60527 45000.00000 0 7587882.621 -8802804.779 22706017.302 10 0 60527 45900.00000 0 10285020.626 -8264915.454 21825302.875 10 0 60527 46800.00000 0 12882367.236 -7949755.579 20520511.490 10 0 60527 47700.00000 0 15312013.647 -7844446.945 18816806.576 10 0 60527 48600.00000 0 17511017.262 -7924335.002 16747138.157 10 0 60527 49500.00000 0 19423837.489 -8154172.033 14351615.235 10 0 60527 50400.00000 0 21004476.760 -8489763.339 11676734.959 10 0 60527 51300.00000 0 22218236.547 -8880007.265 8774482.660 10 0 60527 52200.00000 0 23043013.878 -9269242.780 5701319.797 10 0 60527 53100.00000 0 23470083.036 -9599804.644 2517079.649 10 0 60527 54000.00000 0 23504328.905 -9814676.844 -716207.170 10 0 60527 54900.00000 0 23163921.799 -9860130.381 -3935533.434 10 0 60527 55800.00000 0 22479447.573 -9688231.769 -7078157.042 10 0 60527 56700.00000 0 21492530.317 -9259114.047 -10082837.977 10 0 60527 57600.00000 0 20254006.767 -8542912.239 -12891044.801 10 0 60527 58500.00000 0 18821730.787 -7521279.700 -15448105.657 10 0 60527 59400.00000 0 17258102.030 -6188419.948 -17704280.266 10 0 60527 60300.00000 0 15627424.409 -4551589.465 -19615731.313 10 0 60527 61200.00000 0 13993206.817 -2631049.769 -21145376.048 10 0 60527 62100.00000 0 12415520.507 -459470.553 -22263601.782 10 0 60527 63000.00000 0 10948524.440 1919191.048 -22948832.025 10 0 60527 63900.00000 0 9638262.237 4451287.939 -23187933.244 10 0 60527 64800.00000 0 8520822.255 7075490.349 -22976455.509 10 0 60527 65700.00000 0 7620936.505 9725119.115 -22318703.674 10 0 60527 66600.00000 0 6951075.376 12330707.806 -21227638.875 10 0 60527 67500.00000 0 6511074.018 14822687.429 -19724613.383 10 0 60527 68400.00000 0 6288303.956 17134082.670 -17838944.793 10 0 60527 69300.00000 0 6258380.716 19203108.431 -15607338.450 10 0 60527 70200.00000 0 6386375.936 20975559.773 -13073169.672 10 0 60527 71100.00000 0 6628481.626 22406897.232 -10285639.823 10 0 60527 72000.00000 0 6934055.540 23463942.072 -7298822.589 10 0 60527 72900.00000 0 7247960.948 24126112.293 -4170618.708 10 0 60527 73800.00000 0 7513101.982 24386149.195 -961639.062 10 0 60527 74700.00000 0 7673047.735 24250305.401 2265962.631 10 0 60527 75600.00000 0 7674634.853 23737987.632 5449685.364 10 0 60527 76500.00000 0 7470439.160 22880869.807 8527882.120 10 0 60527 77400.00000 0 7021012.514 21721513.971 11440944.197 10 0 60527 78300.00000 0 6296790.752 20311556.782 14132446.352 10 0 60527 79200.00000 0 5279592.228 18709537.080 16550231.379 10 0 60527 80100.00000 0 3963643.333 16978454.830 18647413.817 10 0 60527 81000.00000 0 2356086.914 15183162.659 20383284.096 10 0 60527 81900.00000 0 476950.702 13387698.054 21724096.207 10 0 60527 82800.00000 0 -1641424.868 11652666.735 22643724.045 10 0 60527 83700.00000 0 -3955477.845 10032785.600 23124173.900 10 0 60527 84600.00000 0 -6411991.928 8574687.210 23155942.995 10 0 60527 85500.00000 0 -8950076.764 7315077.107 22738216.631 10 0 60528 0.00000 0 -11503481.011 6279320.976 21878899.347 10 0 60528 900.00000 0 -14003145.217 5480520.421 20594477.791 10 0 60528 1800.00000 0 -16379886.279 4919117.846 18909717.823 10 0 60528 2700.00000 0 -18567107.085 4583045.780 16857198.678 10 0 60528 3600.00000 0 -20503415.274 4448416.411 14476692.840 10 0 60528 4500.00000 0 -22135042.779 4480722.288 11814402.046 10 0 60528 5400.00000 0 -23417964.062 4636497.913 8922063.387 10 0 60528 6300.00000 0 -24319623.257 4865372.001 5855942.422 10 0 60528 7200.00000 0 -24820196.559 5112423.073 2675732.981 10 0 60528 8100.00000 0 -24913335.799 5320737.673 -556614.374 10 0 60528 9000.00000 0 -24606361.099 5434061.370 -3778111.384 10 0 60528 9900.00000 0 -23919894.113 5399428.439 -6925973.425 10 0 60528 10800.00000 0 -22886947.444 5169656.808 -9938857.366 10 0 60528 11700.00000 0 -21551509.208 4705600.592 -12758070.230 10 0 60528 12600.00000 0 -19966683.439 3978063.059 -15328723.570 10 0 60528 13500.00000 0 -18192465.975 2969287.582 -17600809.938 10 0 60528 14400.00000 0 -16293250.808 1673962.474 -19530179.736 10 0 60528 15300.00000 0 -14335173.079 99696.607 -21079399.147 10 0 60528 16200.00000 0 -12383401.276 -1733054.595 -22218472.688 10 0 60528 17100.00000 0 -10499492.725 -3791609.717 -22925416.957 10 0 60528 18000.00000 0 -8738923.200 -6032202.337 -23186675.426 10 0 60528 18900.00000 0 -7148893.409 -8401594.438 -22997367.366 10 0 60528 19800.00000 0 -5766502.890 -10839094.686 -22361367.384 10 0 60528 20700.00000 0 -4617366.010 -13278897.273 -21291215.222 10 0 60528 21600.00000 0 -3714725.864 -15652643.968 -19807858.685 10 0 60528 22500.00000 0 -3059100.835 -17892103.118 -17940235.544 10 0 60528 23400.00000 0 -2638476.349 -19931854.531 -15724703.171 10 0 60528 24300.00000 0 -2429031.565 -21711869.457 -13204327.363 10 0 60528 25200.00000 0 -2396368.634 -23179879.215 -10428044.272 10 0 60528 26100.00000 0 -2497191.367 -24293434.875 -7449711.665 10 0 60528 27000.00000 0 -2681361.617 -25021573.445 -4327067.718 10 0 60528 27900.00000 0 -2894246.164 -25346022.079 -1120617.130 10 0 60528 28800.00000 0 -3079254.909 -25261891.138 2107534.215 10 0 60528 29700.00000 0 -3180463.458 -24777828.091 5294873.976 10 0 60528 30600.00000 0 -3145209.772 -23915626.409 8379684.909 10 0 60528 31500.00000 0 -2926555.723 -22709306.167 11302230.555 10 0 60528 32400.00000 0 -2485510.006 -21203704.673 14005902.856 10 0 60528 33300.00000 0 -1792918.844 -19452635.731 16438310.201 10 0 60528 34200.00000 0 -830944.604 -17516693.796 18552285.562 10 0 60528 35100.00000 0 405930.528 -15460793.785 20306795.930 10 0 60528 36000.00000 0 1910419.172 -13351548.147 21667736.069 10 0 60528 36900.00000 0 3662483.662 -11254589.493 22608591.612 10 0 60528 37800.00000 0 5629931.029 -9231949.314 23110958.865 10 0 60528 38700.00000 0 7769525.574 -7339601.128 23164911.113 10 0 60528 39600.00000 0 10028575.053 -5625269.800 22769203.818 10 0 60528 40500.00000 0 12346926.740 -4126597.971 21931313.931 10 0 60528 41400.00000 0 14659292.344 -2869746.040 20667311.368 10 0 60528 42300.00000 0 16897806.530 -1868484.350 19001563.774 10 0 60528 43200.00000 0 18994713.569 -1123815.943 16966278.814 10 0 60528 44100.00000 0 20885070.470 -624146.119 14600891.392 10 0 60528 45000.00000 0 22509353.569 -345992.109 11951306.452 10 0 60528 45900.00000 0 23815858.843 -255203.192 9069011.132 10 0 60528 46800.00000 0 24762794.280 -308639.750 6010073.032 10 0 60528 47700.00000 0 25319975.185 -456239.860 2834044.128 10 0 60528 48600.00000 0 25470049.792 -643385.110 -397207.774 10 0 60528 49500.00000 0 25209202.457 -813464.114 -3620716.300 10 0 60528 50400.00000 0 24547303.946 -910523.429 -6773657.336 10 0 60528 51300.00000 0 23507502.111 -881891.609 -9794587.684 10 0 60528 52200.00000 0 22125270.314 -680663.194 -12624655.780 10 0 60528 53100.00000 0 20446954.261 -267935.563 -15208759.354 10 0 60528 54000.00000 0 18527879.408 385297.680 -17496626.332 10 0 60528 54900.00000 0 16430099.679 1296678.080 -19443797.136 10 0 60528 55800.00000 0 14219883.314 2471501.356 -21012488.946 10 0 60528 56700.00000 0 11965042.334 3902265.868 -22172325.300 10 0 60528 57600.00000 0 9732218.187 5568769.660 -22900917.461 10 0 60528 58500.00000 0 7584237.380 7438751.861 -23184287.211 10 0 60528 59400.00000 0 5577647.234 9469051.268 -23017124.020 10 0 60528 60300.00000 0 3760533.697 11607233.332 -22402872.901 10 0 60528 61200.00000 0 2170710.837 13793617.274 -21353652.465 10 0 60528 62100.00000 0 834355.592 15963618.643 -19890005.891 10 0 60528 63000.00000 0 -234857.508 18050309.710 -18040490.512 10 0 60528 63900.00000 0 -1036087.896 19987091.269 -15841114.670 10 0 60528 64800.00000 0 -1581115.376 21710365.039 -13334633.126 10 0 60528 65700.00000 0 -1893592.563 23162095.936 -10569714.838 10 0 60528 66600.00000 0 -2007796.645 24292158.419 -7599999.269 10 0 60528 67500.00000 0 -1966934.370 25060369.792 -4483059.278 10 0 60528 68400.00000 0 -1821072.667 25438126.477 -1279290.308 10 0 60528 69300.00000 0 -1624782.618 25409575.925 1949252.906 10 0 60528 70200.00000 0 -1434596.282 24972275.846 5140050.129 10 0 60528 71100.00000 0 -1306383.512 24137313.737 8231317.370 10 0 60528 72000.00000 0 -1292759.051 22928881.906 11163193.862 10 0 60528 72900.00000 0 -1440628.950 21383325.621 13878892.053 10 0 60528 73800.00000 0 -1788979.419 19547703.726 16325789.059 10 0 60528 74700.00000 0 -2367001.255 17477921.059 18456439.175 10 0 60528 75600.00000 0 -3192629.081 15236509.597 20229488.570 10 0 60528 76500.00000 0 -4271557.581 12890149.592 21610475.075 10 0 60528 77400.00000 0 -5596777.267 10507032.708 22572497.998 10 0 60528 78300.00000 0 -7148650.964 8154175.629 23096745.194 10 0 60528 79200.00000 0 -8895529.900 5894794.790 23172867.075 10 0 60528 80100.00000 0 -10794885.961 3785850.544 22799189.825 10 0 60528 81000.00000 0 -12794915.182 1875862.327 21982762.888 10 0 60528 81900.00000 0 -14836547.779 203085.432 20739238.668 10 0 60528 82800.00000 0 -16855782.676 -1205874.573 19092585.412 10 0 60528 83700.00000 0 -18786250.439 -2336951.825 17074637.350 10 0 60528 84600.00000 0 -20561898.341 -3188976.949 14724489.367 10 0 60528 85500.00000 0 -22119685.333 -3773485.398 12087746.676 10 0 60529 0.00000 0 -23402173.494 -4113985.112 9215643.391 10 0 60529 900.00000 0 -24359906.894 -4244714.559 6164045.005 10 0 60529 1800.00000 0 -24953474.938 -4208943.443 2992358.092 10 0 60529 2700.00000 0 -25155174.164 -4056889.308 -237636.143 10 0 60529 3600.00000 0 -24950195.247 -3843338.833 -3462997.019 10 0 60529 4500.00000 0 -24337284.690 -3625076.372 -6620864.627 10 0 60529 5400.00000 0 -23328852.284 -3458230.475 -9649699.205 10 0 60529 6300.00000 0 -21950519.417 -3395652.793 -12490493.858 10 0 60529 7200.00000 0 -20240127.360 -3484442.315 -15087935.451 10 0 60529 8100.00000 0 -18246247.813 -3763721.482 -17391489.853 10 0 60529 9000.00000 0 -16026259.199 -4262759.585 -19356389.610 10 0 60529 9900.00000 0 -13644070.508 -4999523.723 -20944504.456 10 0 60529 10800.00000 0 -11167589.095 -5979718.953 -22125077.912 10 0 60529 11700.00000 0 -8666039.166 -7196358.207 -22875316.237 10 0 60529 12600.00000 0 -6207243.450 -8629879.889 -23180819.234 10 0 60529 13500.00000 0 -3854981.370 -10248807.792 -23035845.711 10 0 60529 14400.00000 0 -1666533.217 -12010925.245 -22443409.721 10 0 60529 15300.00000 0 309488.552 -13864913.824 -21415206.959 10 0 60529 16200.00000 0 2034932.265 -15752387.787 -19971373.848 10 0 60529 17100.00000 0 3483451.642 -17610239.053 -18140084.909 10 0 60529 18000.00000 0 4641348.372 -19373194.841 -15956996.875 10 0 60529 18900.00000 0 5507879.952 -20976481.423 -13464550.771 10 0 60529 19800.00000 0 6095022.355 -22358483.281 -10711145.609 10 0 60529 20700.00000 0 6426699.677 -23463287.242 -7750199.772 10 0 60529 21600.00000 0 6537514.888 -24243006.014 -4639118.024 10 0 60529 22500.00000 0 6471036.453 -24659784.830 -1438183.882 10 0 60529 23400.00000 0 6277713.828 -24687407.816 1790601.631 10 0 60529 24300.00000 0 6012510.131 -24312437.574 4984712.845 10 0 60529 25200.00000 0 5732351.855 -23534840.874 8082301.313 10 0 60529 26100.00000 0 5493502.914 -22368074.172 11023384.076 10 0 60529 27000.00000 0 5348973.383 -20838625.239 13750996.017 10 0 60529 27900.00000 0 5346071.761 -18985029.526 16212284.683 10 0 60529 28800.00000 0 5524203.560 -16856401.445 18359527.153 10 0 60529 29700.00000 0 5913008.918 -14510540.723 20151049.962 10 0 60529 30600.00000 0 6530917.829 -12011691.318 21552034.910 10 0 60529 31500.00000 0 7384184.527 -9428044.747 22535195.575 10 0 60529 32400.00000 0 8466442.748 -6829090.166 23081311.662 10 0 60529 33300.00000 0 9758802.218 -4282919.941 23179610.728 10 0 60529 34200.00000 0 11230484.330 -1853601.520 22827989.436 10 0 60529 35100.00000 0 12839972.572 401276.092 22033069.253 10 0 60529 36000.00000 0 14536631.807 2432779.806 20810084.401 10 0 60529 36900.00000 0 16262730.618 4202443.486 19182602.869 10 0 60529 37800.00000 0 17955783.712 5683637.041 17182084.420 10 0 60529 38700.00000 0 19551117.389 6862436.161 14847282.702 10 0 60529 39600.00000 0 20984550.974 7737956.010 12223501.783 10 0 60529 40500.00000 0 22195081.536 8322134.592 9361720.580 10 0 60529 41400.00000 0 23127458.303 8638974.843 6317601.631 10 0 60529 42300.00000 0 23734537.230 8723277.566 3150403.503 10 0 60529 43200.00000 0 23979314.991 8618919.276 -78181.533 10 0 60529 44100.00000 0 23836555.006 8376748.760 -3305240.986 10 0 60529 45000.00000 0 23293935.355 8052192.760 -6467881.735 10 0 60529 45900.00000 0 22352668.874 7702673.870 -9504470.046 10 0 60529 46800.00000 0 21027568.396 7384951.918 -12355846.212 10 0 60529 47700.00000 0 19346554.000 7152503.347 -14966488.600 10 0 60529 48600.00000 0 17349623.072 7053051.291 -17285603.219 10 0 60529 49500.00000 0 15087326.963 7126352.282 -19268116.745 10 0 60529 50400.00000 0 12618818.931 7402334.169 -20875553.303 10 0 60529 51300.00000 0 10009556.016 7899664.429 -22076778.067 10 0 60529 52200.00000 0 7328751.725 8624809.356 -22848593.818 10 0 60529 53100.00000 0 4646686.440 9571623.468 -23176179.733 10 0 60529 54000.00000 0 2031987.813 10721485.865 -23053365.092 10 0 60529 54900.00000 0 -451005.971 12043977.135 -22482733.859 10 0 60529 55800.00000 0 -2744691.191 13498067.674 -21475559.339 10 0 60529 56700.00000 0 -4800351.574 15033767.029 -20051571.343 10 0 60529 57600.00000 0 -6579931.534 16594164.721 -18238561.284 10 0 60529 58500.00000 0 -8057358.044 18117776.934 -16071833.559 10 0 60529 59400.00000 0 -9219358.427 19541100.805 -13593514.278 10 0 60529 60300.00000 0 -10065742.431 20801269.790 -10851730.911 10 0 60529 61200.00000 0 -10609139.096 21838699.373 -7899678.783 10 0 60529 62100.00000 0 -10874201.482 22599612.917 -4794592.275 10 0 60529 63000.00000 0 -10896314.314 23038342.551 -1596640.364 10 0 60529 63900.00000 0 -10719860.079 23119309.214 1632232.513 10 0 60529 64800.00000 0 -10396117.311 22818599.561 4829498.268 10 0 60529 65700.00000 0 -9980879.877 22125073.927 7933247.170 10 0 60529 66600.00000 0 -9531897.525 21040959.030 10883377.322 10 0 60529 67500.00000 0 -9106245.173 19581900.358 13622749.283 10 0 60529 68400.00000 0 -8757731.361 17776471.380 16098284.231 10 0 60529 69300.00000 0 -8534454.507 15665159.158 18261985.112 10 0 60529 70200.00000 0 -8476609.500 13298867.407 20071861.732 10 0 60529 71100.00000 0 -8614636.808 10736997.871 21492742.532 10 0 60529 72000.00000 0 -8967792.185 8045188.167 22496957.741 10 0 60529 72900.00000 0 -9543197.739 5292798.468 23064880.930 10 0 60529 73800.00000 0 -10335415.373 2550249.746 23185318.396 10 0 60529 74700.00000 0 -11326562.004 -113677.306 22855738.379 10 0 60529 75600.00000 0 -12486963.590 -2634471.716 22082334.924 10 0 60529 76500.00000 0 -13776322.534 -4954341.650 20879924.026 10 0 60529 77400.00000 0 -15145351.440 -7024382.391 19271672.749 10 0 60529 78300.00000 0 -16537806.422 -8806372.788 17288665.095 10 0 60529 79200.00000 0 -17892835.926 -10274125.088 14969311.579 10 0 60529 80100.00000 0 -19147547.144 -11414331.439 12358612.673 10 0 60529 81000.00000 0 -20239682.237 -12226871.260 9507289.434 10 0 60529 81900.00000 0 -21110291.231 -12724566.353 6470797.630 10 0 60529 82800.00000 0 -21706287.898 -12932394.047 3308244.469 10 0 60529 83700.00000 0 -21982779.332 -12886191.890 81229.515 10 0 60529 84600.00000 0 -21905069.198 -12630909.349 -3147366.798 10 0 60529 85500.00000 0 -21450248.296 -12218481.587 -6314622.018 99